Regional Weather Roundup
Issued by NWS

Home | Current Version | Previous Version | Graphics & Text | Print | Product List | Glossary On
Versions: 1 2 3 4 5 6 7 8 9 10 11 12 13 14 15 16 17 18 19 20 21 22 23 24 25 26 27 28 29 30 31 32 33 34 35 36 37 38 39 40 41 42 43 44 45 46 47 48 49 50
000
ASUS45 KABQ 240410
RWRNM
WEATHER ROUNDUP FOR NEW MEXICO
NATIONAL WEATHER SERVICE ALBUQUERQUE NM
1000 PM MDT WED APR 23 2014

NOTE: "FAIR" MEANS FEW OR NO CLOUDS BELOW 12,000 FEET AGL WITH NO
       SIGNIFICANT WEATHER OR OBSTRUCTIONS TO VISION.

      THIS PRODUCT IS RELEASED AS TWO VERSIONS.  ONE VERSION NEAR
      THE TOP OF THE HOUR CONTAINING PRELIMINARY DATA FROM ALBUQUERQUE
      AND OTHER STATIONS.  A FINAL VERSION WITH ADDITIONAL DATA IS
      ISSUED ABOUT 10 MINUTES AFTER THE HOUR.

NMZ501-503-504-510>518-240500-
NORTHWEST PLATEAU/NORTHCENTRAL MOUNTAINS

CITY           SKY/WX    TMP DP  RH WIND       PRES   REMARKS
FARMINGTON     CLEAR     49   8  19 NW13      29.97R
LOS ALAMOS     CLEAR     48  11  21 SE5       29.95R
SANTA FE       CLEAR     49  11  21 NW8       29.91R
TAOS           CLEAR     43  10  26 N3        29.96R
ANGEL FIRE     FAIR      42  12  29 W23G38    29.91F

$$
NMZ402-403-502-505>509-240500-
WESTCENTRAL MOUNTAINS/SOUTHWEST MOUNTAINS

CITY           SKY/WX    TMP DP  RH WIND       PRES   REMARKS
GALLUP         CLEAR     49  10  20 N12       30.02R
GRANTS         CLEAR     49   6  16 NW13      30.00R
SILVER CITY    CLEAR     57   9  14 NW9       30.00R

$$
NMZ407-409-411-412-240500-
SOUTHERN DESERTS

CITY           SKY/WX    TMP DP  RH WIND       PRES   REMARKS
LORDSBURG      FAIR      63  12  14 NW12      29.94R
DEMING         CLEAR     68  14  12 NW16G25   29.89R
LAS CRUCES     CLEAR     69  15  12 W10       29.90R
HOLLOMAN AFB   PTCLDY    69  23  17 W10       29.83R
ALAMOGORDO     PTCLDY    66  19  16 W7        29.85R
T OR C         CLEAR     66   8  10 W10       29.89R

$$
NMZ519>523-240500-
CENTRAL VALLEYS/CENTRAL HIGHLANDS

CITY           SKY/WX    TMP DP  RH WIND       PRES   REMARKS
ALBUQUERQUE    PTCLDY    57  16  20 NW7       29.91R
DOUBLE EAGLE   CLEAR     49  13  23 NW13      29.94R
MORIARTY ARPT  FAIR      51  14  22 NW12      29.93R
CLINES CORNERS PTCLDY    49  15  25 W16       29.91R
BELEN          FAIR      58  11  15 W12       29.92R
SOCORRO        FAIR      65  11  12 NW17G24   29.90R

$$
NMZ524>526-539-540-240500-
SOUTHCENTRAL MOUNTAINS

CITY           SKY/WX    TMP DP  RH WIND       PRES   REMARKS
RUIDOSO        MOCLDY    57  14  18 NW16G36   29.98R

$$
NMZ527>531-240500-
NORTHEAST HIGHLANDS/NORTHEAST PLAINS

CITY           SKY/WX    TMP DP  RH WIND       PRES   REMARKS
LAS VEGAS      PTCLDY    47  18  31 NW15      29.87R
RATON          CLOUDY    53  20  27 SW10      29.81R
CLAYTON        MOCLDY    65  22  19 W26G36    29.70R

$$
NMZ532>537-240500-
EASTCENTRAL PLAINS

CITY           SKY/WX    TMP DP  RH WIND       PRES   REMARKS
TUCUMCARI      MOCLDY    71  22  15 W28G36    29.71R
CANNON AFB     MOCLDY    68  25  19 NW22G29   29.74R
CLOVIS AIRPORT PTCLDY    68  21  17 W20G25    29.76R

$$
NMZ028-029-538-240500-
SOUTHEAST PLAINS

CITY           SKY/WX    TMP DP  RH WIND       PRES   REMARKS
ROSWELL        CLEAR     72  16  12 SW9       29.74R
ARTESIA        CLEAR     64  23  20 SW10      29.76R
CARLSBAD       CLEAR     65  28  24 W8        29.74R
HOBBS          CLEAR     68  18  14 W8        29.76R


$$



USA.gov is the U.S. government's official web portal to all federal, state and local government web resources and services.